Location: Conway Observatory, Indiana
(41.2910°N, 87.4210°W)
Time: 19:45:27
(UTC-06:00)

ISS - Visible Passes

Search period start: 15 December 2017 00:00
Search period end: 25 December 2017 00:00
Orbit: 402 x 406 km, 51.6° (Epoch: 16 December)

Date Brightness Start Highest point End Pass type
(mag) Time Alt. Az. Time Alt. Az. Time Alt. Az.
15 Dec -3.9 17:06:34 10° NW 17:09:51 67° NE 17:13:06 10° ESE visible
15 Dec -0.8 18:44:11 10° W 18:45:57 14° SW 18:47:12 12° SSW visible
16 Dec -1.5 17:51:06 10° WNW 17:53:54 26° SW 17:56:41 10° SSE visible
17 Dec -2.8 16:58:34 10° WNW 17:01:47 50° SW 17:04:57 10° SE visible
18 Dec -0.2 17:44:38 10° WSW 17:45:33 11° SW 17:46:29 10° SW visible
19 Dec -0.7 16:50:58 10° W 16:53:31 21° SW 16:56:02 10° S visible
